Weather History for Siren, WI

Change the Weather History Date:

Thursday, October 31, 2013

  Actual Average Record
Temperature  
Mean Temperature 44 °F -  
Max Temperature 47 °F - - ()
Min Temperature 41 °F - - ()
Degree Days  
Heating Degree Days 20    
Moisture  
Dew Point 44 °F    
Average Humidity 98    
Maximum Humidity 99    
Minimum Humidity 97    
Precipitation  
Precipitation 0.12 in - - ()
Sea Level Pressure  
Sea Level Pressure 29.46 in    
Wind  
Wind Speed 3 mph (WNW)    
Max Wind Speed 10 mph    
Max Gust Speed 16 mph    
Visibility 2 miles    
Events Fog , Rain    
T = Trace of Precipitation, MM = Missing Value Source: NWS Daily Summary

Daily Weather History Graph

Daily Weather History Graph

Search for Another Location

Airport:

Trip Planner

Search our weather history database for the weather conditions in past years. The results will help you decide how hot, cold, wet, or windy it might be!

Date:

Astronomy

Oct. 31, 2013 Rise Set
Actual Time 7:48 AM CDT 5:56 PM CDT
Civil Twilight 7:17 AM CDT 6:27 PM CDT
Nautical Twilight 6:42 AM CDT 7:03 PM CDT
Astronomical Twilight 6:07 AM CDT 7:37 PM CDT
Moon 4:29 AM CDT (10/31) 4:22 PM CDT (10/31)
Length of Visible Light 11h 10m
Length of Day
10h 08m
Waning Crescent, 10% of the Moon is Illuminated
Oct 31
Waning Crescent
Nov 3
New
Nov 9
First Quarter
Nov 17
Full
Nov 25
Last Quarter

Hourly Weather History & Observations

Time (CDT) Temp. Windchill Dew Point Humidity Pressure Visibility Wind Dir Wind Speed Gust Speed Precip Events Conditions
12:15 AM 48.0 °F - 47.3 °F 97% 29.67 in 1.2 mi Calm Calm - N/A   Overcast
12:35 AM 47.7 °F - 47.3 °F 99% 29.66 in 1.0 mi Calm Calm - N/A   Overcast
12:55 AM 47.7 °F - 47.3 °F 99% 29.65 in 1.0 mi Calm Calm - N/A   Overcast
1:15 AM 47.5 °F - 46.9 °F 98% 29.64 in 0.5 mi Calm Calm - N/A Rain Light Rain
1:35 AM 47.7 °F - 47.3 °F 99% 29.63 in 0.8 mi Calm Calm - N/A   Light Drizzle
1:55 AM 47.5 °F - 47.3 °F 99% 29.62 in 0.8 mi Calm Calm - N/A   Overcast
2:15 AM 47.5 °F - 47.3 °F 99% 29.62 in 0.5 mi Calm Calm - N/A Fog Fog
2:35 AM 47.5 °F - 47.3 °F 99% 29.61 in 0.5 mi Calm Calm - 0.01 in   Drizzle
2:55 AM 47.5 °F - 47.3 °F 99% 29.60 in 0.5 mi Calm Calm - 0.01 in   Light Drizzle
3:15 AM 47.3 °F - 46.9 °F 99% 29.59 in 0.5 mi Calm Calm - N/A Fog Fog
3:35 AM 47.3 °F - 46.9 °F 99% 29.58 in 0.5 mi Calm Calm - N/A Fog Fog
3:55 AM 47.3 °F - 46.9 °F 99% 29.57 in 0.5 mi Calm Calm - N/A Fog Fog
4:15 AM 47.3 °F - 46.9 °F 99% 29.56 in 0.2 mi Calm Calm - N/A Fog Fog
4:35 AM 47.5 °F - 47.1 °F 99% 29.56 in 0.5 mi Calm Calm - N/A Fog Fog
4:55 AM 46.9 °F - 46.6 °F 99% 29.55 in 0.2 mi Calm Calm - N/A Fog Fog
5:15 AM 47.1 °F - 46.8 °F 99% 29.55 in 0.2 mi Calm Calm - N/A Fog Fog
5:35 AM 47.3 °F - 46.8 °F 98% 29.54 in 0.5 mi Calm Calm - N/A Fog Fog
5:55 AM 47.3 °F - 47.1 °F 99% 29.54 in 0.5 mi Calm Calm - N/A Fog Fog
6:15 AM 47.3 °F - 46.8 °F 98% 29.54 in 0.5 mi Calm Calm - N/A Fog Fog
6:35 AM 46.9 °F - 46.6 °F 99% 29.54 in 0.5 mi Calm Calm - 0.01 in Fog Fog
6:55 AM 46.9 °F - 46.6 °F 99% 29.53 in 0.8 mi NNW 3.5 mph - 0.01 in   Overcast
7:15 AM 46.9 °F - 46.6 °F 99% 29.53 in 1.5 mi NW 5.8 mph - N/A   Overcast
7:35 AM 46.6 °F - 46.4 °F 99% 29.53 in 1.2 mi NNW 4.6 mph - N/A   Overcast
7:55 AM 46.4 °F 45.2 °F 46.0 °F 99% 29.52 in 1.8 mi NNW 3.5 mph - N/A   Drizzle
8:15 AM 46.4 °F - 46.0 °F 99% 29.50 in 1.5 mi Calm Calm - N/A   Light Drizzle
8:35 AM 46.4 °F 45.2 °F 45.9 °F 98% 29.48 in 1.0 mi ENE 3.5 mph - N/A   Overcast
8:55 AM 46.4 °F - 46.0 °F 99% 29.49 in 1.2 mi Calm Calm - N/A   Overcast
9:15 AM 46.6 °F - 46.2 °F 99% 29.50 in 1.2 mi West 3.5 mph - 0.01 in   Overcast
9:35 AM 46.4 °F 42.9 °F 46.0 °F 99% 29.50 in 1.2 mi West 6.9 mph - 0.01 in   Overcast
9:55 AM 46.0 °F 43.1 °F 45.7 °F 99% 29.49 in 1.0 mi WNW 5.8 mph - 0.01 in   Overcast
10:15 AM 45.5 °F 41.8 °F 45.1 °F 99% 29.48 in 0.2 mi WNW 6.9 mph - N/A Fog Fog
10:35 AM 45.0 °F 40.6 °F 44.6 °F 99% 29.48 in 0.2 mi West 8.1 mph - N/A Fog Fog
10:55 AM 44.6 °F 40.7 °F 44.2 °F 99% 29.47 in 0.5 mi WNW 6.9 mph - N/A Fog Fog
11:15 AM 44.6 °F 41.4 °F 44.2 °F 99% 29.46 in 1.2 mi West 5.8 mph - N/A   Drizzle
11:35 AM 44.6 °F 40.2 °F 44.1 °F 98% 29.46 in 1.2 mi WNW 8.1 mph - N/A   Drizzle
11:55 AM 44.2 °F 39.2 °F 43.9 °F 99% 29.45 in 1.2 mi WNW 9.2 mph - N/A Rain Light Rain
12:15 PM 44.2 °F 39.2 °F 43.9 °F 99% 29.44 in 1.5 mi WNW 9.2 mph - 0.01 in Rain Light Rain
12:35 PM 44.4 °F 41.2 °F 43.9 °F 98% 29.43 in 2.0 mi NW 5.8 mph - 0.01 in Rain Light Rain
12:55 PM 44.4 °F 40.0 °F 43.9 °F 98% 29.42 in 7.0 mi NW 8.1 mph - 0.01 in   Overcast
1:15 PM 44.2 °F 40.3 °F 43.9 °F 99% 29.41 in 5.0 mi WNW 6.9 mph - N/A   Overcast
1:35 PM 44.1 °F 40.1 °F 43.7 °F 99% 29.41 in 3.0 mi WNW 6.9 mph - N/A   Overcast
1:55 PM 44.1 °F 40.8 °F 43.7 °F 99% 29.40 in 1.5 mi West 5.8 mph - N/A   Overcast
2:15 PM 43.9 °F 39.9 °F 43.3 °F 98% 29.39 in 1.5 mi West 6.9 mph - N/A   Overcast
2:35 PM 43.9 °F 39.9 °F 43.3 °F 98% 29.38 in 2.0 mi West 6.9 mph - N/A   Overcast
2:55 PM 43.9 °F 39.3 °F 43.3 °F 98% 29.38 in 2.0 mi WNW 8.1 mph - N/A   Overcast
3:15 PM 43.9 °F 39.3 °F 43.3 °F 98% 29.37 in 2.5 mi West 8.1 mph - N/A   Overcast
3:35 PM 43.5 °F 40.1 °F 43.0 °F 98% 29.37 in 3.0 mi West 5.8 mph - N/A   Overcast
3:55 PM 43.2 °F 38.4 °F 42.8 °F 99% 29.36 in 2.0 mi West 8.1 mph - N/A   Overcast
4:15 PM 43.2 °F 39.0 °F 42.8 °F 99% 29.36 in 1.5 mi WNW 6.9 mph - N/A   Drizzle
4:35 PM 42.8 °F 38.0 °F 42.3 °F 98% 29.36 in 1.2 mi WNW 8.1 mph - N/A Rain Light Rain
4:55 PM 42.8 °F 37.0 °F 42.1 °F 97% 29.36 in 1.5 mi WNW 10.4 mph 16.1 mph N/A Rain Light Rain
5:15 PM 42.3 °F 37.3 °F 41.9 °F 99% 29.36 in 1.5 mi West 8.1 mph - N/A Rain Light Rain
5:35 PM 42.3 °F 36.8 °F 41.7 °F 98% 29.36 in 1.5 mi West 9.2 mph - N/A Rain Light Rain
5:55 PM 41.9 °F 38.2 °F 41.4 °F 98% 29.36 in 1.8 mi West 5.8 mph - N/A   Drizzle
6:15 PM 41.9 °F 36.9 °F 41.4 °F 98% 29.36 in 2.0 mi West 8.1 mph - 0.01 in   Drizzle
6:35 PM 41.9 °F 36.9 °F 41.2 °F 97% 29.36 in 2.0 mi WNW 8.1 mph - 0.01 in Rain Rain
6:55 PM 41.9 °F 37.5 °F 41.2 °F 97% 29.36 in 2.5 mi West 6.9 mph - 0.02 in   Heavy Drizzle
7:15 PM 41.5 °F 37.1 °F 41.0 °F 98% 29.36 in 2.5 mi West 6.9 mph - 0.01 in   Heavy Drizzle
7:35 PM 41.4 °F 36.8 °F 41.0 °F 99% 29.36 in 2.5 mi WNW 6.9 mph - 0.01 in   Drizzle
7:55 PM 41.2 °F 37.3 °F 40.6 °F 98% 29.36 in 2.0 mi West 5.8 mph - 0.01 in Rain Light Rain
8:15 PM 41.0 °F 37.1 °F 40.5 °F 98% 29.36 in 2.0 mi West 5.8 mph - N/A Rain Light Rain
8:35 PM 41.0 °F 36.4 °F 40.3 °F 97% 29.35 in 2.0 mi West 6.9 mph - 0.01 in Rain Light Rain
8:55 PM 41.0 °F 36.4 °F 40.3 °F 97% 29.35 in 2.0 mi WNW 6.9 mph - 0.01 in Rain Light Rain
9:15 PM 41.0 °F 36.4 °F 40.3 °F 97% 29.35 in 3.0 mi WNW 6.9 mph - N/A Rain Rain
9:35 PM 41.0 °F 36.4 °F 40.5 °F 98% 29.35 in 7.0 mi WNW 6.9 mph - 0.01 in Rain Light Rain
9:55 PM 41.2 °F 36.6 °F 40.6 °F 98% 29.35 in 4.0 mi NW 6.9 mph - 0.01 in   Drizzle
10:15 PM 41.4 °F 35.7 °F 41.0 °F 99% 29.36 in 2.5 mi NW 9.2 mph - 0.01 in Rain Heavy Rain
10:35 PM 41.2 °F 35.5 °F 40.8 °F 99% 29.36 in 2.5 mi NW 9.2 mph - 0.02 in   Drizzle
10:55 PM 41.2 °F 36.0 °F 40.6 °F 98% 29.36 in 5.0 mi NW 8.1 mph - 0.02 in   Light Drizzle
11:15 PM 41.2 °F 36.0 °F 40.5 °F 97% 29.36 in 7.0 mi NW 8.1 mph - N/A   Overcast
11:35 PM 41.2 °F 36.6 °F 40.5 °F 97% 29.36 in 7.0 mi NW 6.9 mph - N/A Rain Rain
11:55 PM 41.0 °F 34.7 °F 40.3 °F 97% 29.36 in 10.0 mi NW 10.4 mph - 0.01 in Rain Light Rain